AO-07
1 07530U 74089B 25259.52878332 -.00000031 00000-0 94737-4 0 9993
2 07530 101.9985 264.8598 0011932 294.4389 185.3186 12.53691542326222


Ligne 0
Le nom commun de l'objetAO-07
Ligne 1
Numéro de catalogue satellite07530U
Désignateur international74089B
Année de lancement74
Numéro de lancement dans l'année089
Object du lancementB
Époque (année)25
Époque (Jour de l'année en UTC)259.52878332
1ère dérivée du mouvement moyen-.00000031
2ème dérivée du mouvement moyen 00000-0
B * Terme de glissement 94737-4
Type de jeu d'éléments0
Numéro d'élément 999
Ligne 2
Numéro de catalogue satellite07530
Inclinaison de l'orbite (degrés)101.9985
Ascension droite du nœud ascendant (degrés)264.8598
Excentricité0011932
Argument du Périgée (degrés)294.4389
Anomalie moyenne (degrés)185.3186
Mouvement moyen (révolutions / jour)12.53691542
Numéro de révolution à l'époque32622
Valeurs déduites
Période Orbitale (en minutes)114.9 min.
Demi-grand axe (en kilomètres)7827.2 Km
Altitude à l‘Apogée (en kilomètres)1465.6 Km
Altitude au Périgée (en kilomètres)1446.9 Km

* Sources des TLE's : Celestrack